This is the latest recevied weather packets stored in our database for station/object KC1ELF. If no packets are shown the sender has not sent any weather packets the latest 1 day(s).
| Time | Temp. | Humidity | Pressure | Rain* | Wind** | Luminosity | Snow |
|---|---|---|---|---|---|---|---|
| 1778077297 | 21.67° C | 67% | 1008.2 hPa | 0 mm | - | - | - |
| 1778076096 | 20.56° C | 69% | 1008.4 hPa | 0 mm | - | - | - |
| 1778075497 | 20° C | 71% | 1008.5 hPa | 0 mm | - | - | - |
| 1778074896 | 19.44° C | 72% | 1008.8 hPa | 0 mm | - | - | - |
| 1778074296 | 18.89° C | 72% | 1009 hPa | 0 mm | - | - | - |
| 1778073696 | 18.89° C | 72% | 1009.1 hPa | 0 mm | - | - | - |
| 1778071296 | 18.33° C | 73% | 1008.9 hPa | 0 mm | - | - | - |
| 1778070697 | 18.33° C | 73% | 1009.1 hPa | 0 mm | - | - | - |
| 1778070097 | 18.33° C | 74% | 1009.1 hPa | 0 mm | - | - | - |
| 1778069498 | 17.78° C | 76% | 1008.9 hPa | 0 mm | - | - | - |
| 1778068897 | 17.78° C | 75% | 1009.2 hPa | 0 mm | - | - | - |
| 1778068296 | 17.22° C | 76% | 1009.2 hPa | 0 mm | - | - | - |
| 1778066496 | 17.22° C | 77% | 1009.5 hPa | 0 mm | - | - | - |
| 1778065897 | 16.67° C | 78% | 1009.3 hPa | 0 mm | - | - | - |
| 1778065296 | 16.11° C | 78% | 1009.5 hPa | 0 mm | - | - | - |
| 1778064097 | 16.11° C | 78% | 1009.5 hPa | 0 mm | - | - | - |
| 1778063496 | 15.56° C | 78% | 1009.4 hPa | 0 mm | - | - | - |
| 1778062896 | 15.56° C | 78% | 1009.4 hPa | 0 mm | - | - | - |
| 1778062296 | 15.56° C | 78% | 1009.5 hPa | 0 mm | - | - | - |
| 1778061696 | 15.56° C | 77% | 1009.6 hPa | 0 mm | - | - | - |
| 1778060496 | 15.56° C | 76% | 1009.3 hPa | 0 mm | - | - | - |
| 1778059897 | 15.56° C | 76% | 1009.4 hPa | 0 mm | - | - | - |
| 1778058696 | 16.11° C | 75% | 1009.4 hPa | 0 mm | - | - | - |
| 1778058096 | 16.11° C | 75% | 1009.4 hPa | 0 mm | - | - | - |
| 1778057496 | 16.11° C | 74% | 1009.5 hPa | 0 mm | - | - | - |
* Rain latest hour (hover to see other rain measurements)
** Current wind speed in m/s (hover to see current wind gust speed)